Tracking 30166 objects as of 22-Jan-2025
HD Live streaming from Space Station
objects crossing your sky now

STARLINK-32532

Track STARLINK-32532 now!
10-day predictions
STARLINK-32532 is classified as:


NORAD ID: 62156
Int'l Code: 2024-224T
Perigee: 475.4 km
Apogee: 477.9 km
Inclination: 43.0 °
Period: 94.0 minutes
Semi major axis: 6847 km
RCS: Unknown
Launch date: November 30, 2024
Source: (USA)
Launch site: AIR FORCE EASTERN TEST RANGE (AFETR)
Your satellite tracking list
Your tracking list is empty




NASA's NSSDC Master Catalog

Two Line Element Set (TLE):
1 62156U 24224T   25022.24107288 -.00001918  00000-0 -51896-4 0  9991
2 62156  43.0047 329.5874 0001786 272.0173  88.0476 15.32111135  9298
Source of the keplerian elements: AFSPC